Regional Weather Roundup
Issued by NWS

Home | Current Version | Previous Version | Text Only | Print | Product List | Glossary Off
Versions: 1 2 3 4 5 6 7 8 9 10 11 12 13 14 15 16 17 18 19 20 21 22 23 24 25 26 27 28 29 30 31 32 33 34 35 36 37 38 39 40 41 42 43 44 45 46 47 48 49 50

757
ASUS43 KLOT 220603
RWRIL

ILLINOIS REGIONAL WEATHER ROUNDUP
NATIONAL WEATHER SERVICE CHICAGO/ROMEOVILLE IL
1200 AM CST THU FEB 22 2018

NOTE: "FAIR" INDICATES FEW OR NO CLOUDS BELOW 12,000 FEET WITH NO
SIGNIFICANT WEATHER AND/OR OBSTRUCTIONS TO VISIBILITY.

* THESE STATIONS ARE NOT UNDER NWS QUALITY CONTROL. THEY ALSO MAY NOT
  REPORT WEATHER SUCH AS PRECIPITATION OR FOG.

ILZ001-002-007-009-015-016-024-220700-
NORTHWEST ILLINOIS

CITY           SKY/WX    TMP DP  RH WIND       PRES   REMARKS
MOLINE         FAIR      27  19  72 NE10      30.55F WCI  17
6HR MIN TEMP:  27; 6HR MAX TEMP:  28;

STERLING*      FAIR      26  20  77 NE9       30.57  WCI  17
SAVANNA*       FAIR      26  16  67 NE9       30.59S WCI  16
$$

ILZ003-004-008-010-011-017-018-220700-
NORTH CENTRAL ILLINOIS

CITY           SKY/WX    TMP DP  RH WIND       PRES   REMARKS
ROCKFORD       CLOUDY    25  16  68 NE9       30.60F WCI  15
6HR MIN TEMP:  24; 6HR MAX TEMP:  26;

FREEPORT*      FAIR      24  17  73 NE12      30.59F WCI  13
ROCHELLE*      FAIR      26  21  80 NE14      30.57F WCI  15
DE KALB*       FAIR      26  21  80 NE12      30.57F WCI  16
PERU*          FAIR      27  22  80 NE14      30.55F WCI  16
$$

ILZ005-006-012>014-019>023-220700-
NORTHEAST ILLINOIS

CITY           SKY/WX    TMP DP  RH WIND       PRES   REMARKS
CHICAGO-OHARE  CLOUDY    29  21  72 NE14      30.57F WCI  18
6HR MIN TEMP:  29; 6HR MAX TEMP:  29;

CHICAGO-MIDWAY CLOUDY    31  23  72 NE17      30.57F WCI  19
6HR MIN TEMP:  29; 6HR MAX TEMP:  31;

AURORA         FAIR      28  21  75 NE12      30.56F WCI  18
6HR MIN TEMP:  27; 6HR MAX TEMP:  30;

LANSING*       FAIR      31  27  86 NE12G17   30.56F WCI  22
JOLIET*        FAIR      30  25  79 NE9G16    30.55F WCI  22
WAUKEGAN       FAIR      28  20  71 NE8       30.59F WCI  20
6HR MIN TEMP:  26; 6HR MAX TEMP:  28;

DUPAGE AIRPORT FAIR      27  21  78 NE12      30.56F WCI  17
6HR MIN TEMP:  26; 6HR MAX TEMP:  29;

KANKAKEE*      MOCLDY    31  26  83 NE15      30.53F WCI  20
WHEELING       FAIR      30  22  72 NE10      30.60F WCI  21
6HR MIN TEMP:  29; 6HR MAX TEMP:  30;

MORRIS*        FAIR      29  23  76 NE8       30.54F WCI  21
ROMEOVILLE*    FAIR      29  24  82 NE14      30.55F WCI  18
NORTHERLY ISL    N/A     30  24  78 NE16        N/A  WCI  19
$$

LMZ740>746-220700-
SOUTHERN LAKE MICHIGAN

STATION/POSITION SKY/WX   TEMP    WIND        PRES    VSBY  WAVE
                          AIR SEA DIR/SP/G                  HT/PER
                          (F)     (DEG/KT/KT) (MB)    (MI)  (FT/S)
HARRISON CRIB              31      40/ 17/ 19   N/A
BURNHAM HARBOR             31      30/ 12/ 17   N/A
CALUMET HARBOR             31      30/ 14/ 18 1035.1
BURNS HARBOR               31      50/ 16/ 19 1036.6
MICHIGAN CITY              30      30/ 22/ 24   N/A
$$

ILZ025>027-034>036-040-047-049-050-058-095>099-220700-
WEST-CENTRAL ILLINOIS

CITY           SKY/WX    TMP DP  RH WIND       PRES   REMARKS
QUINCY         CLOUDY    28  25  88 NE13      30.49F WCI  17
GALESBURG*     MOCLDY    28  24  86 NE14      30.52F WCI  17
MACOMB*        CLOUDY    28  26  89 NE10      30.53S WCI  19
JACKSONVILLE*  CLOUDY    30  28  90 NE12      30.46S WCI  21
PITTSFIELD*    CLOUDY    30  28  92 N8        30.50R WCI  23
$$

ILZ028>032-037-038-041>044-048-051>054-059>061-220700-
CENTRAL ILLINOIS

CITY           SKY/WX    TMP DP  RH WIND       PRES   REMARKS
BLOOMINGTON    CLOUDY    29  27  92 NE23      30.48F WCI  15
DECATUR        CLOUDY    32  29  88 NE17      30.44F WCI  21
PEORIA         FAIR      29  24  82 NE15G24   30.51F WCI  18
6HR MIN TEMP:  28; 6HR MAX TEMP:  30;

LACON*         FAIR      28  24  83 NE8       30.53S WCI  20
LINCOLN*       CLOUDY    32  30  91 NE15      30.47F WCI  22
SPRINGFIELD    CLOUDY    32  28  85 NE14      30.46S WCI  22
6HR MIN TEMP:  32; 6HR MAX TEMP:  33;

TAYLORVILLE    CLOUDY    32  30  94 CALM      30.44F
6HR MIN TEMP:  32; 6HR MAX TEMP:  32;

$$

ILZ033-039-045-046-055>057-062-063-220700-
EAST-CENTRAL ILLINOIS

CITY           SKY/WX    TMP DP  RH WIND       PRES   REMARKS
CHAMPAIGN      CLOUDY    32  30  92 NE15G23   30.45F WCI  22
DANVILLE*      MOCLDY    32  30  94 NE13      30.45F WCI  22
RANTOUL*       CLOUDY    33  31  92 NE16      30.47F WCI  22
MATTOON        CLOUDY    34  32  92 E15       30.42F WCI  24
PARIS*         CLOUDY    35  33  93 NE15      30.46F WCI  25
$$

ILZ079-100>102-220700-
SOUTHWEST ILLINOIS

CITY           SKY/WX    TMP DP  RH WIND       PRES   REMARKS
ALTON          MIX PCPN  32  32 100 N5        30.42R WCI  27
BELLEVILLE     LGT RAIN  35  32  91 E6        30.38F WCI  30
CAHOKIA*       MIX PCPN  34  32  92 NE6         N/A  WCI  29
SPARTA*        DRIZZLE   34  34 100 E10       30.39F WCI  26
$$

ILZ064>066-069>071-074>076-080>082-084>086-088>090-092>094-220700-
SOUTH-CENTRAL ILLINOIS

CITY           SKY/WX    TMP DP  RH WIND       PRES   REMARKS
CARBONDALE     LGT RAIN  37  37 100 NE8       30.39F WCI  31
6HR MIN TEMP:  35; 6HR MAX TEMP:  37;

CAIRO*         LGT SNOW  38  37  97 NE12      30.34F WCI  30
EFFINGHAM*     DRIZZLE   35  35 100 NE7       30.44F WCI  29
MARION         RAIN      36  36  99 NE8       30.39F WCI  30
MT. VERNON     LGT RAIN  36  35  96 NE10      30.40F WCI  28
CENTRALIA*     LGT RAIN  36  36  98 E10       30.38F WCI  29
SALEM*         RAIN      37  35  92 NE8       30.40F WCI  30
METROPOLIS*    HVY RAIN  39  38  94 NE8       30.36S WCI  34
$$

ILZ067-068-072-073-078-083-087-091-220700-
SOUTHEAST ILLINOIS

CITY           SKY/WX    TMP DP  RH WIND       PRES   REMARKS
LAWRENCEVILLE  RAIN      39  38  96 NE12      30.43F FOG     WCI  32
FLORA*         RAIN      38  37  95 NE9       30.42F WCI  31
FAIRFIELD*     RAIN      37  37 100 CALM      30.40F
HARRISBURG*    MIX PCPN  37  37  99 NE7       30.40F WCI  32
ROBINSON*      RAIN      37  37  99 NE13      30.45F WCI  28
CARMI*         RAIN      38  37  99 N13       30.38F WCI  30
$$

ABBREVIATIONS USED IN REMARKS
   TC - TEMPERATURE IN CELSIUS
  WCI - WIND CHILL INDEX
   HX - HEAT INDEX
  VSB - VISIBILITY
$$





USA.gov is the U.S. government's official web portal to all federal, state and local government web resources and services.